[[{"header":{"parameterUnit":"m.s-1","parameterCategory":1,"la1":30.2991,"la2":30.254,"lo1":-89.0895,"lo2":-89.0444,"dy":0.0017,"dx":0.0017,"nx":28,"ny":28,"refTime":"2024-07-19T03:00:00:Z","depth":0,"parameterNumber":2,"parameterNumberName":"U-component_of_WINDS"},"data":[0,0,0,0,0,0,0,0,0,0,0,0,0,0,0,0,0,0,0,0,0,0,0,0,0,0,0,0,0,0,0,0,0,0,0,0,0,0,0,0,0,0,0,0,0,0,0,0,0,0,0,0,0,0,0,0,0,0,2.7053,2.7053,0,2.71,2.7101,2.7101,2.7043,2.7041,2.7039,2.7037,2.7079,2.7082,2.7085,0,0,0,0,0,0,0,0,0,0,0,0,0,2.6907,2.691,2.7053,2.7053,2.7054,2.71,2.7101,2.7101,2.7044,2.7041,2.7038,2.7036,2.7078,2.7082,2.7085,0,0,0,0,0,0,0,0,0,0,0,0,0,2.6964,2.6911,2.7053,2.7031,2.7029,2.71,2.7101,2.7102,2.7044,2.7041,2.7038,2.7035,2.7077,2.7081,2.7086,2.7178,0,0,2.71,2.7102,0,0,0,0,0,0,0,0,2.6961,2.6969,2.7033,2.7033,2.7031,2.7063,2.7065,2.7127,2.7045,2.7038,2.7037,2.7033,2.7076,2.708,2.7096,2.718,2.7182,2.71,2.7103,2.7105,2.7106,0,0,0,0,0,0,0,2.6957,2.6967,2.7071,2.7034,2.7033,2.7017,2.7022,2.7076,2.7074,2.7039,2.7035,2.7041,2.7074,2.7091,2.7096,2.7182,2.71,2.7104,2.7107,2.7109,2.7347,2.7351,0,0,0,0,0,0,2.6956,2.6964,2.707,2.7073,2.6988,2.7022,2.7027,2.7056,2.7073,2.7073,2.7044,2.7038,2.7085,2.7091,2.7098,2.7209,2.7105,2.7109,2.7112,2.7344,2.7348,2.7352,0,0,0,0,0,0,2.6953,2.6966,2.7068,2.7017,2.7029,2.7028,2.706,2.7058,2.7075,2.7077,2.7076,2.7063,2.7083,2.7091,2.716,2.721,2.7111,2.7116,2.734,2.7345,2.735,2.7432,0,0,0,0,0,0,2.6949,2.6966,2.7002,2.7019,2.7032,2.7131,2.7063,2.7061,2.7084,2.7078,2.7094,2.7094,2.7081,2.7153,2.7164,2.7215,2.7119,2.7335,2.7342,2.7348,2.7425,2.744,2.7452,0,0,0,0,0,2.6944,2.7021,2.7004,2.7017,2.7078,2.7134,2.7141,2.7127,2.7089,2.7125,2.7126,2.7093,2.7202,2.716,2.7173,2.7225,2.7332,2.734,2.7348,2.7419,2.7437,2.7452,0,0,0,0,0,0,2.7006,2.7022,2.7004,2.7088,2.7111,2.7124,2.7169,2.7145,2.7177,2.7169,2.7147,2.7152,2.7226,2.7231,2.7185,2.7317,2.7261,2.7271,2.7311,2.7328,2.7341,2.7339,2.7123,0,0,0,0,0,2.703,2.7077,2.7087,2.7161,2.7173,2.7169,2.7193,2.718,2.7202,2.721,2.7216,2.7236,2.7275,2.7301,2.7337,2.7425,2.7429,2.7467,2.7481,2.7492,2.7502,2.7552,2.757,2.7378,2.7378,2.7378,0,0,2.7079,2.7094,2.7124,2.7174,2.7189,2.7237,2.7177,2.7229,2.7264,2.7217,2.7284,2.7289,2.731,2.739,2.7425,2.7397,2.7556,2.7502,2.7511,2.7515,2.7562,2.758,2.7596,2.7384,2.7383,2.7382,0,0,2.7194,2.7209,2.7274,2.7292,2.7318,2.7315,2.7331,2.7348,2.7351,2.7418,2.7385,2.7425,2.7491,2.7509,2.7527,2.7651,2.7623,2.7662,2.7734,2.7783,2.7798,2.7811,2.7858,2.7875,2.7672,2.7672,2.7672,0,2.7251,2.7324,2.7309,2.7365,2.7389,2.7351,2.7416,2.7433,2.7468,2.7485,2.7453,2.7539,2.755,2.7635,2.7666,2.768,2.7697,2.7661,2.7798,2.7811,2.7823,2.7867,2.7885,2.7677,2.7677,2.7676,2.7676,0,2.7394,2.7445,2.7493,2.7533,2.7561,2.7621,2.7615,2.7645,2.763,2.7631,2.77,2.7712,2.7752,2.777,2.7754,2.7854,2.7836,2.7801,2.7745,2.7847,2.7888,2.7905,2.7684,2.7682,2.7681,2.768,0,0,2.7548,2.7581,2.7599,2.7618,2.7645,2.7683,2.7742,2.7783,2.781,2.7836,2.7885,2.7944,2.7913,2.7933,2.7919,2.7962,2.8063,2.7922,2.7922,2.795,2.8176,2.8204,2.8223,2.8044,2.8047,2.8049,2.8175,0,2.7665,2.777,2.776,2.7859,2.7907,2.7872,2.7924,2.7945,2.7948,2.7987,2.7988,2.8032,2.7986,2.7999,2.8039,2.8042,2.8108,2.8032,2.8089,2.8092,2.8088,2.8245,2.8273,2.8391,2.8191,2.8193,2.8195,0,2.7815,2.7851,2.7957,2.798,2.7999,2.8046,2.8084,2.8122,2.8146,2.8145,2.817,2.8149,2.8207,2.8149,2.8229,2.8178,2.82,2.8205,2.8209,2.8216,2.8151,2.8257,2.8428,2.8447,2.822,2.8218,2.8216,0,2.7921,2.7994,2.8068,2.8085,2.8112,2.8147,2.8159,2.818,2.8207,2.8239,2.8256,2.8294,2.8315,2.8344,2.8334,2.8292,2.8418,2.8358,2.8419,2.8419,2.8448,2.8447,2.8628,2.8459,2.8458,2.8458,2.8458,0,2.8054,2.812,2.8117,2.8162,2.8236,2.8222,2.8295,2.8303,2.8322,2.8368,2.8338,2.8382,2.8365,2.8406,2.8398,2.8468,2.8476,2.8477,2.8475,2.8481,2.8482,2.8497,2.849,2.8463,2.8462,2.8461,2.846,0,2.8185,2.8185,2.8263,2.8285,2.8292,2.8345,2.8363,2.8405,2.8406,2.8464,2.8477,2.8478,2.8526,2.8518,2.857,2.8565,2.8653,2.8638,2.8646,2.8644,2.8706,2.8702,2.8905,2.8932,2.8743,2.8745,2.8747,0,2.8271,2.8322,2.835,2.8381,2.8397,2.8445,2.8474,2.8462,2.8492,2.8525,2.8564,2.861,2.8647,2.8725,2.8729,2.8769,2.8757,2.8826,2.8763,2.8769,2.8762,2.876,2.8766,2.8839,2.8841,2.8843,2.8844,0,2.8424,2.8423,2.8466,2.8511,2.8546,2.858,2.861,2.8635,2.8627,2.8662,2.8713,2.8742,2.8798,2.8844,2.8883,2.8893,2.8868,2.8864,2.8881,2.8889,2.8893,2.8895,2.8683,2.886,2.8858,2.8857,2.8856,2.8855,2.8537,2.8582,2.8611,2.8661,2.8683,2.8713,2.8755,2.8763,2.8806,2.8853,2.8843,2.8901,2.8925,2.8974,2.899,2.9034,2.9009,2.9032,2.9039,2.9045,2.9055,2.8884,2.9041,2.904,2.904,2.9039,2.9039,0,2.8691,2.8709,2.8755,2.8801,2.8841,2.8816,2.8849,2.8883,2.8936,2.8961,2.8999,2.9059,2.9105,2.9114,2.9157,2.9191,2.9181,2.9203,2.9201,2.9205,2.9073,2.9056,2.9211,2.9211,2.9211,2.9211,2.9211,2.9211,2.8777,2.8853,2.8856,2.8943,2.8959,2.9019,2.904,2.9068,2.9089,2.9158,2.9197,2.9204,2.9223,2.9268,2.9309,2.931,2.9329,2.9357,2.9354,2.9231,2.9214,2.9197,2.9181,2.936,2.936,2.9482,2.9483,2.9484]},{"header":{"parameterUnit":"m.s-1","parameterCategory":1,"la1":30.2991,"la2":30.254,"lo1":-89.0895,"lo2":-89.0444,"dy":0.0017,"dx":0.0017,"nx":28,"ny":28,"refTime":"2024-07-19T03:00:00:Z","depth":0,"parameterNumber":3,"parameterNumberName":"V-component_of_WINDS"},"data":[0,0,0,0,0,0,0,0,0,0,0,0,0,0,0,0,0,0,0,0,0,0,0,0,0,0,0,0,0,0,0,0,0,0,0,0,0,0,0,0,0,0,0,0,0,0,0,0,0,0,0,0,0,0,0,0,0,0,1.4298,1.4296,0,1.4113,1.4111,1.4109,1.4035,1.4035,1.4036,1.4036,1.3835,1.383,1.3824,0,0,0,0,0,0,0,0,0,0,0,0,0,1.4579,1.4574,1.4298,1.4296,1.4294,1.4113,1.4111,1.4108,1.4035,1.4035,1.4036,1.4037,1.3837,1.383,1.3823,0,0,0,0,0,0,0,0,0,0,0,0,0,1.4432,1.4573,1.4299,1.4236,1.4228,1.4114,1.411,1.4107,1.4035,1.4035,1.4036,1.4037,1.3839,1.3831,1.3822,1.3753,0,0,1.3796,1.3792,0,0,0,0,0,0,0,0,1.444,1.4421,1.4247,1.424,1.4231,1.4098,1.4136,1.3988,1.4034,1.4108,1.4036,1.4037,1.3921,1.3906,1.3869,1.3744,1.3735,1.3795,1.379,1.3786,1.3783,0,0,0,0,0,0,0,1.445,1.4429,1.4225,1.4245,1.4235,1.4213,1.4193,1.4107,1.4012,1.4101,1.4096,1.4075,1.3917,1.3878,1.3864,1.3732,1.3795,1.3787,1.3782,1.3779,1.354,1.3539,0,0,0,0,0,0,1.4472,1.4438,1.423,1.4219,1.434,1.4208,1.4185,1.414,1.4013,1.3995,1.4075,1.4073,1.3892,1.3874,1.3856,1.3767,1.3786,1.3778,1.3773,1.3541,1.354,1.3539,0,0,0,0,0,0,1.4479,1.4455,1.4238,1.4327,1.4298,1.4202,1.4152,1.4136,1.4096,1.3993,1.3975,1.4053,1.3892,1.3869,1.378,1.3759,1.3774,1.3766,1.3543,1.3541,1.354,1.3587,0,0,0,0,0,0,1.4487,1.4458,1.4433,1.4327,1.4293,1.4168,1.415,1.4132,1.4083,1.4078,1.3968,1.395,1.3891,1.3794,1.3772,1.3747,1.3759,1.3544,1.3542,1.354,1.3587,1.3587,1.3588,0,0,0,0,0,1.4498,1.4451,1.4432,1.4407,1.4261,1.4167,1.4147,1.4083,1.4082,1.4054,1.3988,1.3953,1.3765,1.3785,1.376,1.3732,1.3545,1.3543,1.354,1.3587,1.3587,1.3588,0,0,0,0,0,0,1.4552,1.4436,1.4413,1.4332,1.4261,1.4155,1.4118,1.4086,1.401,1.4009,1.393,1.3905,1.3823,1.3768,1.3793,1.3658,1.3652,1.3645,1.3697,1.3696,1.3697,1.371,1.3752,0,0,0,0,0,1.4556,1.4493,1.4393,1.433,1.4296,1.4214,1.417,1.4128,1.4049,1.4017,1.3944,1.3866,1.3789,1.374,1.3663,1.358,1.3553,1.3548,1.3548,1.3549,1.3542,1.3493,1.3489,1.3531,1.3531,1.3531,0,0,1.456,1.4489,1.4453,1.434,1.4279,1.4213,1.4188,1.4119,1.4067,1.4005,1.3918,1.3862,1.3769,1.3683,1.3641,1.3635,1.3526,1.3546,1.3548,1.354,1.349,1.3486,1.3483,1.3529,1.3529,1.353,0,0,1.4534,1.4475,1.4417,1.4358,1.4268,1.4214,1.42,1.41,1.4061,1.3974,1.3926,1.3862,1.3732,1.3668,1.3618,1.357,1.3535,1.3547,1.3548,1.3501,1.3497,1.3494,1.3475,1.347,1.3542,1.3542,1.3542,0,1.455,1.4451,1.4389,1.4323,1.4274,1.4219,1.4158,1.4102,1.3991,1.3956,1.3953,1.3789,1.3722,1.362,1.3609,1.3571,1.355,1.3558,1.3504,1.3499,1.3495,1.3476,1.347,1.3544,1.3544,1.3543,1.3543,0,1.4474,1.4406,1.4369,1.4268,1.4214,1.415,1.4076,1.4029,1.3992,1.3938,1.3848,1.3767,1.3673,1.3646,1.3607,1.3538,1.3537,1.352,1.3511,1.3494,1.3475,1.3468,1.3547,1.3546,1.3545,1.3545,0,0,1.4474,1.4342,1.4329,1.4283,1.4181,1.4125,1.4058,1.3971,1.3931,1.3856,1.3796,1.3689,1.3672,1.3616,1.357,1.3529,1.3495,1.3516,1.3512,1.3513,1.3411,1.3423,1.3416,1.3472,1.3471,1.3469,1.3418,0,1.4433,1.4316,1.4259,1.4164,1.4099,1.4048,1.3989,1.3919,1.3866,1.3801,1.3742,1.3666,1.3651,1.3617,1.3575,1.3508,1.3473,1.3511,1.3412,1.3409,1.3435,1.3406,1.3419,1.3375,1.341,1.3409,1.3408,0,1.4369,1.4299,1.42,1.4106,1.4077,1.4026,1.3941,1.3881,1.3799,1.3763,1.3703,1.3659,1.3583,1.3583,1.3477,1.3504,1.3461,1.3422,1.3419,1.3405,1.3406,1.339,1.3359,1.3352,1.3396,1.3397,1.3398,0,1.4378,1.4258,1.4183,1.4145,1.4034,1.3999,1.3951,1.3871,1.3822,1.3747,1.3714,1.363,1.3583,1.3518,1.3451,1.3457,1.335,1.3345,1.3316,1.3318,1.3293,1.3295,1.3253,1.3269,1.3269,1.327,1.327,0,1.4337,1.4277,1.4186,1.4139,1.407,1.4005,1.3937,1.3884,1.3814,1.3754,1.3703,1.3647,1.3564,1.3496,1.3444,1.3363,1.3342,1.3309,1.3295,1.3312,1.3316,1.328,1.3281,1.3268,1.3268,1.3268,1.3269,0,1.4333,1.427,1.4184,1.4089,1.4063,1.4016,1.3932,1.3883,1.383,1.3755,1.3733,1.3647,1.3566,1.3494,1.3385,1.3349,1.3265,1.325,1.3294,1.3286,1.3261,1.3263,1.3192,1.3178,1.3207,1.3206,1.3206,0,1.431,1.4263,1.4164,1.4122,1.4076,1.4009,1.396,1.3894,1.3844,1.3749,1.3711,1.3627,1.3555,1.3427,1.3353,1.3269,1.3249,1.323,1.3235,1.3254,1.3246,1.3249,1.3243,1.3229,1.3229,1.3229,1.3229,0,1.4275,1.4246,1.418,1.4103,1.4047,1.3982,1.3914,1.3882,1.3803,1.3749,1.3668,1.3613,1.3504,1.3419,1.3328,1.3274,1.3237,1.3229,1.3217,1.3233,1.326,1.3243,1.3292,1.323,1.323,1.323,1.323,1.323,1.4258,1.4215,1.4139,1.4066,1.401,1.3949,1.3899,1.3841,1.3773,1.3681,1.3646,1.3562,1.3481,1.3355,1.3302,1.3233,1.3226,1.321,1.3205,1.3202,1.3204,1.3274,1.3216,1.3216,1.3216,1.3216,1.3215,0,1.4219,1.4169,1.4103,1.4013,1.3955,1.3932,1.3856,1.3808,1.3737,1.3666,1.3599,1.3504,1.3423,1.3344,1.3258,1.3218,1.3198,1.3197,1.3198,1.3186,1.3215,1.3233,1.3214,1.3214,1.3214,1.3214,1.3214,1.3214,1.4192,1.4117,1.408,1.3975,1.3924,1.3844,1.3803,1.3746,1.369,1.3588,1.3522,1.3473,1.3398,1.3306,1.323,1.3208,1.3177,1.318,1.3154,1.3183,1.3184,1.3184,1.3201,1.3175,1.3175,1.3129,1.3129,1.3129]}]]